LLN507 KMFR-KRNO

Flight info

Callsign LLN507
Flight time 0h 55m
Altitude 33000
Route FMG
Aircraft C550/L-SDFGHRWY/S

Departure

Time 2026-04-30 05:52
Airport Rogue Valley International-Medford Airport (KMFR)

Arrival

Time 2026-04-30 06:47
Airport Reno Tahoe International Airport (KRNO)
Time Latitude Longitude Altitude Speed Heading
2026-04-30 05:44 42.36903 -122.87227 1339 ft 0 kts 194°
2026-04-30 05:45 42.36886 -122.87214 1339 ft 7 kts 97°
2026-04-30 05:46 42.36903 -122.87148 1339 ft 8 kts 61°
2026-04-30 05:46 42.36943 -122.87140 1339 ft 6 kts 331°
2026-04-30 05:46 42.36990 -122.87176 1339 ft 10 kts 330°
2026-04-30 05:46 42.37065 -122.87234 1339 ft 15 kts 330°
2026-04-30 05:47 42.37168 -122.87313 1339 ft 19 kts 330°
2026-04-30 05:47 42.37281 -122.87378 1339 ft 16 kts 339°
2026-04-30 05:47 42.37379 -122.87429 1339 ft 14 kts 339°
2026-04-30 05:47 42.37470 -122.87476 1339 ft 15 kts 339°
2026-04-30 05:48 42.37588 -122.87538 1339 ft 20 kts 340°
2026-04-30 05:48 42.37718 -122.87605 1339 ft 19 kts 338°
2026-04-30 05:48 42.37830 -122.87664 1339 ft 16 kts 339°
2026-04-30 05:48 42.37895 -122.87697 1339 ft 14 kts 347°
2026-04-30 05:49 42.37978 -122.87738 1339 ft 12 kts 339°
2026-04-30 05:49 42.38048 -122.87775 1339 ft 10 kts 339°
2026-04-30 05:49 42.38141 -122.87823 1339 ft 19 kts 339°
2026-04-30 05:49 42.38270 -122.87891 1339 ft 19 kts 339°
2026-04-30 05:50 42.38383 -122.87950 1339 ft 16 kts 339°
2026-04-30 05:50 42.38477 -122.87999 1339 ft 13 kts 339°
2026-04-30 05:50 42.38549 -122.88001 1339 ft 10 kts 68°
2026-04-30 05:50 42.38573 -122.87914 1339 ft 9 kts 79°
2026-04-30 05:51 42.38531 -122.87861 1339 ft 11 kts 160°
2026-04-30 05:51 42.38356 -122.87780 1339 ft 45 kts 165°
2026-04-30 05:51 42.37941 -122.87560 1339 ft 90 kts 159°
2026-04-30 05:51 42.37201 -122.87178 1399 ft 130 kts 160°
2026-04-30 05:52 42.36255 -122.86699 1621 ft 157 kts 160°
2026-04-30 05:52 42.35226 -122.86115 2161 ft 166 kts 158°
2026-04-30 05:52 42.34113 -122.85538 2787 ft 174 kts 162°
2026-04-30 05:52 42.32946 -122.85185 3589 ft 169 kts 172°
2026-04-30 05:53 42.31889 -122.84591 4372 ft 165 kts 135°
2026-04-30 05:53 42.31240 -122.83346 5069 ft 166 kts 121°
2026-04-30 05:53 42.30652 -122.81922 5538 ft 180 kts 119°
2026-04-30 05:53 42.30026 -122.80387 6013 ft 193 kts 121°
2026-04-30 05:54 42.29282 -122.78849 6519 ft 202 kts 126°
2026-04-30 05:54 42.28402 -122.77346 7156 ft 202 kts 131°
2026-04-30 05:54 42.27479 -122.75950 7895 ft 198 kts 133°
2026-04-30 05:54 42.26522 -122.74604 8495 ft 200 kts 135°
2026-04-30 05:55 42.25512 -122.73261 9006 ft 206 kts 136°
2026-04-30 05:55 42.24457 -122.71910 9513 ft 212 kts 137°
2026-04-30 05:55 42.23363 -122.70546 10020 ft 216 kts 137°
2026-04-30 05:55 42.22240 -122.69168 10526 ft 220 kts 138°
2026-04-30 05:56 42.21095 -122.67778 11030 ft 223 kts 138°
2026-04-30 05:56 42.19950 -122.66396 11526 ft 225 kts 138°
2026-04-30 05:56 42.18763 -122.64970 12034 ft 226 kts 138°
2026-04-30 05:56 42.17584 -122.63560 12536 ft 227 kts 138°
2026-04-30 05:57 42.16419 -122.62167 13030 ft 227 kts 138°
2026-04-30 05:57 42.15235 -122.60756 13531 ft 226 kts 138°
2026-04-30 05:57 42.14056 -122.59352 14031 ft 225 kts 138°
2026-04-30 05:57 42.12886 -122.57960 14528 ft 224 kts 138°
2026-04-30 05:58 42.11722 -122.56576 15025 ft 222 kts 138°
2026-04-30 05:58 42.10563 -122.55199 15475 ft 222 kts 138°
2026-04-30 05:58 42.09403 -122.53822 15902 ft 223 kts 138°
2026-04-30 05:58 42.08235 -122.52437 16330 ft 223 kts 137°
2026-04-30 05:59 42.07079 -122.51066 16773 ft 225 kts 138°
2026-04-30 05:59 42.05885 -122.49652 17276 ft 227 kts 138°
2026-04-30 05:59 42.04716 -122.48268 17770 ft 227 kts 138°
2026-04-30 05:59 42.03529 -122.46864 18271 ft 227 kts 138°
2026-04-30 06:00 42.02338 -122.45455 18725 ft 230 kts 138°
2026-04-30 06:00 42.01130 -122.44027 19157 ft 232 kts 138°
2026-04-30 06:00 41.99908 -122.42584 19586 ft 235 kts 138°
2026-04-30 06:00 41.98672 -122.41123 20014 ft 238 kts 138°
2026-04-30 06:01 41.97421 -122.39647 20442 ft 240 kts 139°
2026-04-30 06:01 41.96162 -122.38162 20868 ft 241 kts 139°
2026-04-30 06:01 41.94895 -122.36670 21295 ft 242 kts 139°
2026-04-30 06:01 41.93625 -122.35173 21722 ft 243 kts 139°
2026-04-30 06:02 41.92352 -122.33674 22147 ft 243 kts 139°
2026-04-30 06:02 41.91079 -122.32177 22572 ft 243 kts 139°
2026-04-30 06:02 41.89811 -122.30685 22990 ft 242 kts 139°
2026-04-30 06:02 41.88557 -122.29211 23343 ft 244 kts 139°
2026-04-30 06:03 41.87273 -122.27702 23657 ft 246 kts 139°
2026-04-30 06:03 41.85973 -122.26177 23962 ft 250 kts 139°
2026-04-30 06:03 41.84658 -122.24633 24265 ft 253 kts 139°
2026-04-30 06:03 41.83328 -122.23073 24567 ft 255 kts 139°
2026-04-30 06:04 41.81969 -122.21479 24735 ft 263 kts 138°
2026-04-30 06:04 41.80564 -122.19833 24818 ft 274 kts 139°
2026-04-30 06:04 41.79084 -122.18100 24836 ft 288 kts 139°
2026-04-30 06:05 41.75951 -122.14434 24836 ft 314 kts 139°
2026-04-30 06:05 41.74276 -122.12476 24838 ft 326 kts 139°
2026-04-30 06:05 41.72526 -122.10433 24839 ft 339 kts 139°
2026-04-30 06:05 41.70722 -122.08328 24839 ft 349 kts 139°
2026-04-30 06:06 41.68872 -122.06171 24838 ft 356 kts 139°
2026-04-30 06:06 41.66991 -122.03979 24838 ft 361 kts 139°
2026-04-30 06:06 41.65086 -122.01761 24839 ft 364 kts 139°
2026-04-30 06:06 41.63168 -121.99528 24839 ft 367 kts 139°
2026-04-30 06:07 41.61238 -121.97285 24840 ft 369 kts 139°
2026-04-30 06:07 41.59295 -121.95027 24841 ft 371 kts 139°
2026-04-30 06:07 41.57344 -121.92763 24841 ft 372 kts 139°
2026-04-30 06:07 41.55382 -121.90487 24842 ft 373 kts 139°
2026-04-30 06:08 41.53418 -121.88211 24842 ft 374 kts 139°
2026-04-30 06:08 41.51475 -121.85962 24845 ft 375 kts 139°
2026-04-30 06:08 41.49496 -121.83673 24848 ft 375 kts 139°
2026-04-30 06:08 41.47524 -121.81395 24846 ft 376 kts 139°
2026-04-30 06:09 41.45564 -121.79130 24845 ft 365 kts 139°
2026-04-30 06:09 41.43678 -121.76951 24843 ft 355 kts 139°
2026-04-30 06:09 41.41829 -121.74818 24844 ft 349 kts 140°
2026-04-30 06:09 41.40001 -121.72710 24845 ft 345 kts 140°
2026-04-30 06:10 41.38190 -121.70625 24847 ft 343 kts 140°
2026-04-30 06:10 41.36391 -121.68557 24850 ft 341 kts 140°
2026-04-30 06:10 41.34600 -121.66500 24852 ft 340 kts 140°
2026-04-30 06:10 41.32812 -121.64447 24852 ft 339 kts 140°
2026-04-30 06:11 41.31049 -121.62426 24855 ft 338 kts 140°
2026-04-30 06:11 41.29268 -121.60385 24860 ft 337 kts 140°
2026-04-30 06:11 41.27490 -121.58349 24862 ft 337 kts 140°
2026-04-30 06:11 41.25713 -121.56315 24862 ft 337 kts 140°
2026-04-30 06:12 41.23938 -121.54285 24863 ft 336 kts 140°
2026-04-30 06:12 41.22164 -121.52258 24863 ft 336 kts 141°
2026-04-30 06:12 41.20386 -121.50227 24863 ft 336 kts 141°
2026-04-30 06:12 41.18610 -121.48202 24863 ft 336 kts 141°
2026-04-30 06:13 41.16836 -121.46179 24864 ft 336 kts 141°
2026-04-30 06:13 41.15086 -121.44184 24864 ft 336 kts 141°
2026-04-30 06:13 41.13311 -121.42163 24864 ft 336 kts 141°
2026-04-30 06:13 41.11542 -121.40150 24864 ft 335 kts 141°
2026-04-30 06:14 41.09770 -121.38134 24864 ft 335 kts 141°
2026-04-30 06:14 41.07997 -121.36121 24865 ft 335 kts 141°
2026-04-30 06:14 41.06228 -121.34111 24865 ft 335 kts 141°
2026-04-30 06:14 41.04458 -121.32103 24865 ft 335 kts 141°
2026-04-30 06:15 41.02687 -121.30095 24866 ft 335 kts 141°
2026-04-30 06:15 41.00921 -121.28095 24866 ft 335 kts 141°
2026-04-30 06:15 40.99151 -121.26091 24868 ft 334 kts 141°
2026-04-30 06:15 40.97380 -121.24088 24868 ft 334 kts 141°
2026-04-30 06:16 40.95613 -121.22090 24871 ft 334 kts 141°
2026-04-30 06:16 40.93841 -121.20089 24872 ft 334 kts 141°
2026-04-30 06:16 40.92125 -121.18148 24840 ft 320 kts 142°
2026-04-30 06:16 40.90476 -121.16279 24781 ft 305 kts 142°
2026-04-30 06:17 40.88897 -121.14490 24716 ft 293 kts 142°
2026-04-30 06:17 40.87379 -121.12774 24658 ft 282 kts 142°
2026-04-30 06:17 40.85903 -121.11109 24603 ft 276 kts 142°
2026-04-30 06:17 40.84437 -121.09462 24551 ft 276 kts 142°
2026-04-30 06:18 40.82971 -121.07819 24501 ft 276 kts 142°
2026-04-30 06:18 40.81502 -121.06173 24451 ft 277 kts 142°
2026-04-30 06:18 40.80031 -121.04526 24399 ft 277 kts 143°
2026-04-30 06:18 40.78581 -121.02902 24348 ft 277 kts 143°
2026-04-30 06:19 40.77607 -121.01811 24315 ft 277 kts 143°
2026-04-30 06:19 40.76133 -121.00160 24263 ft 277 kts 143°
2026-04-30 06:19 40.74659 -120.98510 24173 ft 279 kts 143°
2026-04-30 06:19 40.73171 -120.96846 23906 ft 280 kts 143°
2026-04-30 06:20 40.71681 -120.95177 23347 ft 282 kts 143°
2026-04-30 06:20 40.70190 -120.93505 22778 ft 280 kts 142°
2026-04-30 06:20 40.68724 -120.91862 22244 ft 278 kts 143°
2026-04-30 06:20 40.67277 -120.90238 21722 ft 269 kts 143°
2026-04-30 06:21 40.65859 -120.88648 21083 ft 267 kts 143°
2026-04-30 06:21 40.64434 -120.87055 20322 ft 269 kts 143°
2026-04-30 06:21 40.62999 -120.85455 19573 ft 271 kts 143°
2026-04-30 06:21 40.61563 -120.83853 18934 ft 268 kts 143°
2026-04-30 06:22 40.60153 -120.82280 18380 ft 264 kts 142°
2026-04-30 06:22 40.58762 -120.80729 17812 ft 260 kts 143°
2026-04-30 06:22 40.57392 -120.79203 17403 ft 255 kts 143°
2026-04-30 06:22 40.56012 -120.77673 17053 ft 262 kts 143°
2026-04-30 06:23 40.54625 -120.76138 16786 ft 265 kts 143°
2026-04-30 06:23 40.53214 -120.74573 16556 ft 266 kts 143°
2026-04-30 06:23 40.51800 -120.73002 16318 ft 266 kts 143°
2026-04-30 06:23 40.50390 -120.71437 16137 ft 263 kts 143°
2026-04-30 06:24 40.48991 -120.69888 15835 ft 263 kts 143°
2026-04-30 06:24 40.47591 -120.68337 15562 ft 262 kts 143°
2026-04-30 06:24 40.46209 -120.66805 15415 ft 257 kts 143°
2026-04-30 06:24 40.44855 -120.65304 15356 ft 255 kts 143°
2026-04-30 06:25 40.43494 -120.63801 15307 ft 257 kts 144°
2026-04-30 06:25 40.42124 -120.62293 15257 ft 258 kts 144°
2026-04-30 06:25 40.40744 -120.60772 15208 ft 259 kts 144°
2026-04-30 06:25 40.39360 -120.59246 15160 ft 260 kts 143°
2026-04-30 06:26 40.37970 -120.57712 15110 ft 261 kts 143°
2026-04-30 06:26 40.36574 -120.56173 15060 ft 262 kts 144°
2026-04-30 06:26 40.35176 -120.54631 15012 ft 263 kts 143°
2026-04-30 06:26 40.33775 -120.53087 14960 ft 263 kts 144°
2026-04-30 06:27 40.32390 -120.51565 14919 ft 263 kts 144°
2026-04-30 06:27 40.30987 -120.50021 14871 ft 264 kts 144°
2026-04-30 06:27 40.29584 -120.48472 14823 ft 263 kts 144°
2026-04-30 06:27 40.28184 -120.46922 14774 ft 263 kts 144°
2026-04-30 06:28 40.26783 -120.45377 14724 ft 264 kts 144°
2026-04-30 06:28 40.25377 -120.43833 14674 ft 264 kts 144°
2026-04-30 06:28 40.23969 -120.42290 14624 ft 264 kts 144°
2026-04-30 06:28 40.22557 -120.40742 14574 ft 264 kts 144°
2026-04-30 06:29 40.21149 -120.39199 14524 ft 264 kts 144°
2026-04-30 06:29 40.19741 -120.37658 14474 ft 264 kts 144°
2026-04-30 06:29 40.18327 -120.36110 14424 ft 264 kts 144°
2026-04-30 06:29 40.16918 -120.34568 14372 ft 264 kts 144°
2026-04-30 06:30 40.15506 -120.33021 14328 ft 265 kts 144°
2026-04-30 06:30 40.14106 -120.31473 14283 ft 264 kts 144°
2026-04-30 06:30 40.12697 -120.29923 14231 ft 264 kts 144°
2026-04-30 06:30 40.11289 -120.28388 14181 ft 264 kts 144°
2026-04-30 06:31 40.09878 -120.26849 14132 ft 264 kts 144°
2026-04-30 06:31 40.08481 -120.25334 14081 ft 264 kts 145°
2026-04-30 06:31 40.07064 -120.23796 14031 ft 264 kts 144°
2026-04-30 06:31 40.05650 -120.22259 13982 ft 264 kts 145°
2026-04-30 06:32 40.04238 -120.20721 13934 ft 264 kts 144°
2026-04-30 06:32 40.02826 -120.19185 13884 ft 265 kts 144°
2026-04-30 06:32 40.01411 -120.17638 13840 ft 265 kts 145°
2026-04-30 06:32 39.99998 -120.16099 13791 ft 265 kts 144°
2026-04-30 06:33 39.98583 -120.14563 13741 ft 265 kts 145°
2026-04-30 06:33 39.97181 -120.13042 13692 ft 265 kts 144°
2026-04-30 06:33 39.95766 -120.11506 13641 ft 265 kts 144°
2026-04-30 06:33 39.94350 -120.09971 13592 ft 265 kts 144°
2026-04-30 06:34 39.92932 -120.08434 13543 ft 265 kts 144°
2026-04-30 06:34 39.91515 -120.06893 13493 ft 265 kts 144°
2026-04-30 06:34 39.90094 -120.05363 13442 ft 265 kts 145°
2026-04-30 06:34 39.88686 -120.03842 13391 ft 260 kts 145°
2026-04-30 06:35 39.87311 -120.02350 13338 ft 254 kts 144°
2026-04-30 06:35 39.85965 -120.00889 13286 ft 250 kts 145°
2026-04-30 06:35 39.84637 -119.99450 13233 ft 247 kts 145°
2026-04-30 06:35 39.83321 -119.98026 13180 ft 244 kts 145°
2026-04-30 06:36 39.82017 -119.96620 13129 ft 242 kts 145°
2026-04-30 06:36 39.80717 -119.95218 12991 ft 244 kts 145°
2026-04-30 06:36 39.79411 -119.93815 12809 ft 247 kts 145°
2026-04-30 06:36 39.78088 -119.92387 12627 ft 246 kts 145°
2026-04-30 06:37 39.76803 -119.90993 12373 ft 237 kts 145°
2026-04-30 06:37 39.75556 -119.89644 12107 ft 230 kts 146°
2026-04-30 06:37 39.74332 -119.88324 11792 ft 229 kts 146°
2026-04-30 06:37 39.73076 -119.86980 11541 ft 237 kts 145°
2026-04-30 06:38 39.72233 -119.86079 11494 ft 236 kts 145°
2026-04-30 06:38 39.70974 -119.84724 11443 ft 234 kts 144°
2026-04-30 06:38 39.69721 -119.83371 11366 ft 234 kts 145°
2026-04-30 06:38 39.68469 -119.82027 11261 ft 234 kts 145°
2026-04-30 06:39 39.67204 -119.80672 11148 ft 236 kts 144°
2026-04-30 06:39 39.65937 -119.79316 11054 ft 236 kts 144°
2026-04-30 06:39 39.64670 -119.77960 10978 ft 236 kts 145°
2026-04-30 06:39 39.63393 -119.76604 10824 ft 239 kts 144°
2026-04-30 06:40 39.62099 -119.75228 10639 ft 242 kts 144°
2026-04-30 06:40 39.60799 -119.73839 10532 ft 242 kts 144°
2026-04-30 06:40 39.59527 -119.72473 10502 ft 239 kts 144°
2026-04-30 06:40 39.58252 -119.71102 10461 ft 237 kts 144°
2026-04-30 06:41 39.56976 -119.69740 10329 ft 239 kts 144°
2026-04-30 06:41 39.55692 -119.68359 10200 ft 240 kts 143°
2026-04-30 06:41 39.54349 -119.67085 10071 ft 239 kts 154°
2026-04-30 06:41 39.52782 -119.66290 9804 ft 244 kts 166°
2026-04-30 06:42 39.51120 -119.65876 9727 ft 241 kts 174°
2026-04-30 06:42 39.49483 -119.65691 9856 ft 230 kts 178°
2026-04-30 06:42 39.47907 -119.65622 9892 ft 226 kts 180°
2026-04-30 06:42 39.46288 -119.65610 9529 ft 239 kts 181°
2026-04-30 06:43 39.44606 -119.65607 9323 ft 243 kts 180°
2026-04-30 06:43 39.42896 -119.65631 9044 ft 249 kts 184°
2026-04-30 06:43 39.41209 -119.66019 8919 ft 248 kts 197°
2026-04-30 06:43 39.39703 -119.67027 8764 ft 236 kts 216°
2026-04-30 06:44 39.38622 -119.68503 8548 ft 219 kts 234°
2026-04-30 06:44 39.37994 -119.70213 8357 ft 207 kts 251°
2026-04-30 06:44 39.37797 -119.72049 7987 ft 207 kts 269°
2026-04-30 06:44 39.38075 -119.73897 7693 ft 208 kts 289°
2026-04-30 06:45 39.38831 -119.75403 7696 ft 195 kts 312°
2026-04-30 06:45 39.39950 -119.76440 7536 ft 206 kts 334°
2026-04-30 06:45 39.41391 -119.76841 7394 ft 213 kts 355°
2026-04-30 06:45 39.42810 -119.76791 7591 ft 202 kts
2026-04-30 06:46 39.44196 -119.76539 7375 ft 197 kts
2026-04-30 06:46 39.45455 -119.76385 6933 ft 174 kts 359°
2026-04-30 06:46 39.46645 -119.76469 6194 ft 170 kts 351°
2026-04-30 06:46 39.47815 -119.76615 5262 ft 167 kts 355°
2026-04-30 06:47 39.48989 -119.76669 4435 ft 160 kts 357°
2026-04-30 06:47 39.49758 -119.76678 4419 ft 38 kts 359°
2026-04-30 06:47 39.49965 -119.76678 4419 ft 31 kts
2026-04-30 06:47 39.50172 -119.76675 4419 ft 28 kts
2026-04-30 06:48 39.50324 -119.76670 4419 ft 15 kts
2026-04-30 06:48 39.50367 -119.76616 4419 ft 9 kts 85°
2026-04-30 06:48 39.50401 -119.76572 4419 ft 8 kts
2026-04-30 06:48 39.50427 -119.76530 4419 ft 7 kts 107°
2026-04-30 06:49 39.50381 -119.76517 4419 ft 0 kts 276°